Meteo pe oră la Bolshie Lyzki

Astăzi, 6 Mai, Joi

Timp Temperatura Precipitaţii Vânt Presiune Umiditate
00:00 +8°C° 0 mm 5 m/s 735 mmHg 85%
01:00 +8°C° 0 mm 5 m/s 734 mmHg 88%
02:00 +8°C° 0 mm 5 m/s 734 mmHg 89%
03:00 +8°C° 0 mm 6 m/s 733 mmHg 90%
04:00 +8°C° 0 mm 7 m/s 733 mmHg 92%
05:00 +8°C° 0 mm 7 m/s 733 mmHg 93%
06:00 +9°C° 0.1 mm 8 m/s 732 mmHg 92%
07:00 +9°C° 0.1 mm 8 m/s 732 mmHg 91%
08:00 +9°C° 0.1 mm 8 m/s 732 mmHg 90%
09:00 +7°C° 1.1 mm 8 m/s 732 mmHg 90%
10:00 +5°C° 1.1 mm 7 m/s 733 mmHg 91%
11:00 +4°C° 1.1 mm 6 m/s 734 mmHg 91%
12:00 +5°C° 0.1 mm 6 m/s 734 mmHg 87%
13:00 +7°C° 0.1 mm 6 m/s 735 mmHg 83%
14:00 +8°C° 0.1 mm 6 m/s 735 mmHg 79%
15:00 +8°C° 0.3 mm 7 m/s 736 mmHg 77%
16:00 +8°C° 0.3 mm 7 m/s 736 mmHg 75%
17:00 +8°C° 0.3 mm 7 m/s 737 mmHg 73%
18:00 +7°C° 0.1 mm 6 m/s 737 mmHg 78%
19:00 +6°C° 0.1 mm 4 m/s 738 mmHg 83%
20:00 +4°C° 0.1 mm 3 m/s 738 mmHg 87%
21:00 +4°C° 0 mm 3 m/s 739 mmHg 87%
22:00 +3°C° 0 mm 4 m/s 739 mmHg 86%
23:00 +3°C° 0 mm 4 m/s 739 mmHg 86%

Mâine, 7 Mai, Vineri

Timp Temperatura Precipitaţii Vânt Presiune Umiditate
00:00 +1°C° 0 mm 4 m/s 739 mmHg 86%
01:00 +2°C° 0 mm 3 m/s 739 mmHg 87%
02:00 +1°C° 0 mm 3 m/s 740 mmHg 88%
03:00 +1°C° 0 mm 3 m/s 740 mmHg 87%
04:00 0°C° 0 mm 4 m/s 740 mmHg 86%
05:00 0°C° 0 mm 4 m/s 740 mmHg 85%
06:00 +2°C° 0 mm 5 m/s 740 mmHg 82%
07:00 +5°C° 0 mm 5 m/s 740 mmHg 78%
08:00 +5°C° 0 mm 6 m/s 740 mmHg 74%
09:00 +8°C° 0.2 mm 6 m/s 740 mmHg 71%
10:00 +9°C° 0.2 mm 6 m/s 740 mmHg 68%
11:00 +10°C° 0.2 mm 7 m/s 740 mmHg 65%
12:00 +11°C° 0.2 mm 6 m/s 740 mmHg 63%
13:00 +11°C° 0.2 mm 6 m/s 739 mmHg 62%
14:00 +13°C° 0.2 mm 6 m/s 739 mmHg 61%
15:00 +11°C° 0.3 mm 6 m/s 739 mmHg 65%
16:00 +10°C° 0.3 mm 6 m/s 739 mmHg 69%
17:00 +10°C° 0.3 mm 6 m/s 738 mmHg 73%
18:00 +9°C° 1.9 mm 6 m/s 738 mmHg 80%
19:00 +8°C° 1.9 mm 6 m/s 737 mmHg 87%
20:00 +7°C° 1.9 mm 6 m/s 737 mmHg 93%
21:00 +7°C° 0.4 mm 6 m/s 737 mmHg 93%
22:00 +8°C° 0.4 mm 6 m/s 736 mmHg 93%
23:00 +8°C° 0.4 mm 6 m/s 736 mmHg 93%

Poimâine, 8 Mai, Sâmbătă

Timp Temperatura Precipitaţii Vânt Presiune Umiditate
00:00 +8°C° 0.2 mm 5 m/s 735 mmHg 94%
01:00 +8°C° 0.2 mm 5 m/s 735 mmHg 96%
02:00 +8°C° 0.2 mm 4 m/s 735 mmHg 97%
03:00 +8°C° 0.2 mm 4 m/s 734 mmHg 97%
04:00 +9°C° 0.2 mm 3 m/s 734 mmHg 97%
05:00 +9°C° 0.2 mm 3 m/s 734 mmHg 97%
06:00 +8°C° 0.3 mm 4 m/s 734 mmHg 94%
07:00 +8°C° 0.3 mm 5 m/s 734 mmHg 90%
08:00 +8°C° 0.3 mm 6 m/s 734 mmHg 86%
09:00 +6°C° 0.1 mm 7 m/s 734 mmHg 85%
10:00 +5°C° 0.1 mm 7 m/s 734 mmHg 84%
11:00 +4°C° 0.1 mm 8 m/s 734 mmHg 83%
12:00 +2°C° 0 mm 8 m/s 735 mmHg 86%
13:00 +2°C° 0 mm 8 m/s 735 mmHg 90%
14:00 +2°C° 0 mm 7 m/s 735 mmHg 94%
15:00 +1°C° 0 mm 8 m/s 736 mmHg 92%
16:00 +1°C° 0 mm 8 m/s 737 mmHg 91%
17:00 +2°C° 0 mm 8 m/s 738 mmHg 89%
18:00 +3°C° 0 mm 7 m/s 738 mmHg 87%
19:00 +3°C° 0 mm 7 m/s 739 mmHg 84%
20:00 +3°C° 0 mm 6 m/s 739 mmHg 82%
21:00 +2°C° 0 mm 6 m/s 740 mmHg 83%
22:00 +1°C° 0 mm 6 m/s 740 mmHg 85%
23:00 +1°C° 0 mm 5 m/s 741 mmHg 87%

9 Mai, Duminică

Timp Temperatura Precipitaţii Vânt Presiune Umiditate
00:00 +1°C° 0 mm 5 m/s 741 mmHg 88%
01:00 0°C° 0 mm 5 m/s 742 mmHg 90%
02:00 0°C° 0 mm 5 m/s 743 mmHg 92%
03:00 0°C° 0 mm 4 m/s 743 mmHg 91%
04:00 -1°C° 0 mm 4 m/s 744 mmHg 91%
05:00 -1°C° 0 mm 4 m/s 745 mmHg 90%
06:00 +1°C° 0 mm 4 m/s 745 mmHg 82%
07:00 +4°C° 0 mm 4 m/s 746 mmHg 73%
08:00 +5°C° 0 mm 5 m/s 746 mmHg 64%
09:00 +6°C° 0 mm 5 m/s 747 mmHg 59%
10:00 +8°C° 0 mm 5 m/s 747 mmHg 54%
11:00 +9°C° 0 mm 5 m/s 748 mmHg 49%
12:00 +9°C° 0 mm 5 m/s 748 mmHg 47%
13:00 +11°C° 0 mm 4 m/s 748 mmHg 46%
14:00 +11°C° 0 mm 4 m/s 749 mmHg 44%
15:00 +11°C° 0 mm 4 m/s 749 mmHg 46%
16:00 +11°C° 0 mm 3 m/s 749 mmHg 49%
17:00 +11°C° 0 mm 3 m/s 749 mmHg 51%
18:00 +9°C° 0 mm 2 m/s 750 mmHg 56%
19:00 +8°C° 0 mm 2 m/s 750 mmHg 61%
20:00 +7°C° 0 mm 1 m/s 751 mmHg 65%
21:00 +6°C° 0 mm 2 m/s 751 mmHg 66%
22:00 +5°C° 0 mm 2 m/s 751 mmHg 67%
23:00 +5°C° 0 mm 2 m/s 751 mmHg 67%

10 Mai, Luni

Timp Temperatura Precipitaţii Vânt Presiune Umiditate
00:00 +4°C° 0 mm 2 m/s 752 mmHg 69%
01:00 +4°C° 0 mm 2 m/s 752 mmHg 70%
02:00 +3°C° 0 mm 3 m/s 752 mmHg 71%
03:00 +4°C° 0 mm 2 m/s 753 mmHg 72%
04:00 +4°C° 0 mm 2 m/s 753 mmHg 74%
05:00 +3°C° 0 mm 2 m/s 753 mmHg 75%
06:00 +5°C° 0 mm 3 m/s 753 mmHg 70%
07:00 +8°C° 0 mm 3 m/s 753 mmHg 65%
08:00 +10°C° 0 mm 3 m/s 754 mmHg 59%
09:00 +11°C° 0 mm 3 m/s 753 mmHg 56%
10:00 +13°C° 0 mm 3 m/s 753 mmHg 53%
11:00 +14°C° 0 mm 3 m/s 753 mmHg 50%
12:00 +14°C° 0 mm 3 m/s 753 mmHg 49%
13:00 +16°C° 0 mm 3 m/s 753 mmHg 48%
14:00 +17°C° 0 mm 2 m/s 753 mmHg 47%
15:00 +16°C° 0 mm 2 m/s 753 mmHg 48%
16:00 +16°C° 0 mm 2 m/s 753 mmHg 50%
17:00 +16°C° 0 mm 1 m/s 752 mmHg 51%
18:00 +14°C° 0 mm 2 m/s 752 mmHg 57%
19:00 +13°C° 0 mm 2 m/s 752 mmHg 63%
20:00 +10°C° 0 mm 2 m/s 752 mmHg 69%
21:00 +9°C° 0 mm 2 m/s 752 mmHg 71%
22:00 +8°C° 0 mm 2 m/s 753 mmHg 73%
23:00 +8°C° 0 mm 2 m/s 753 mmHg 74%

11 Mai, Marţi

Timp Temperatura Precipitaţii Vânt Presiune Umiditate
00:00 +7°C° 0 mm 2 m/s 753 mmHg 75%
01:00 +7°C° 0 mm 2 m/s 753 mmHg 76%
02:00 +6°C° 0 mm 2 m/s 753 mmHg 77%
03:00 +6°C° 0 mm 2 m/s 752 mmHg 77%
04:00 +6°C° 0 mm 2 m/s 752 mmHg 78%
05:00 +5°C° 0 mm 3 m/s 752 mmHg 78%
06:00 +8°C° 0 mm 3 m/s 752 mmHg 71%
07:00 +10°C° 0 mm 3 m/s 752 mmHg 65%
08:00 +12°C° 0 mm 3 m/s 752 mmHg 58%
09:00 +14°C° 0 mm 3 m/s 752 mmHg 55%
10:00 +16°C° 0 mm 3 m/s 752 mmHg 53%
11:00 +17°C° 0 mm 3 m/s 751 mmHg 50%
12:00 +18°C° 0 mm 3 m/s 751 mmHg 51%
13:00 +19°C° 0 mm 3 m/s 751 mmHg 52%
14:00 +20°C° 0 mm 3 m/s 751 mmHg 53%
15:00 +20°C° 0 mm 3 m/s 750 mmHg 57%
16:00 +20°C° 0 mm 3 m/s 750 mmHg 61%
17:00 +20°C° 0 mm 3 m/s 750 mmHg 65%
18:00 +18°C° 0 mm 3 m/s 750 mmHg 73%
19:00 +17°C° 0 mm 3 m/s 750 mmHg 81%
20:00 +14°C° 0 mm 3 m/s 750 mmHg 88%
21:00 +13°C° 0 mm 3 m/s 750 mmHg 90%
22:00 +13°C° 0 mm 3 m/s 750 mmHg 92%
23:00 +12°C° 0 mm 3 m/s 750 mmHg 94%
Arată mai mult

Formular de consimțământ

Meteoprog și furnizorii noștri de servicii pot stoca și accesa date personale, precum cookies, identificatori de dispozitiv sau alte tehnologii similare pe dispozitivul dumneavoastră și procesa astfel de date pentru a personaliza conținutul și reclamele, dar și pentru a oferi caracteristici de social media și pentru a analiza traficul.

  • Stocarea și/sau accesarea informațiilor pe dispozitivul dumneavoastră

    Cookies, identificatori de dispozitiv sau alte informații pot fi stocate sau accesate pe dispozitiv în scopurile indicate mai sus.

  • Reclame și conținut personalizat, evaluarea reclamelor și a conținutului, informații despre audiențe și dezvoltarea produselor

    Reclamele și conținutul pot fi personalizate pe baza unui profil. Pot fi adăugate date suplimentare pentru a personaliza mai bine reclamele și conținutul. Performanța reclamelor și conținutului poate fi măsurată. Pot fi obținute informații despre utilizatorii care au văzut reclamele și conținutul. Aceste date pot fi utilizate pentru a dezvolta sau îmbunătăți experiența utilizatorilor, sistemele și software-ul.

Dând clic pe ‘Sunt de acord’, permiteți utilizarea cookie-urilor menționate, a identificatorilor de dispozitiv, balizelor web sau altor tehnologii similare. Setările pot fi modificate din browser-ul dispozitivului dumneavoastră.

În anumite scopuri, interesele legitime pot prima asupra consimțământului. Puteți citi mai multe informații în acest sens în Politica privind Confidențialitatea Datelor și Cookie.